カタログに戻る

OPS 0856 DEB

LostPO
NORAD 23820·DEBRIS·🇺🇸 United States

打ち上げ Aug 19, 1966 から Vandenberg Space Force Base

Loading…

次のパス (今後24時間)

TLE

古いSource: Space-Track

元期: Jan 22, 2025, 18:44 UTC

1 23820U 66077D   25022.78110296 -.00009238  00000-0 -56236+0 0  9991
2 23820  88.4531 332.1713 1828241 293.0412  48.8323  8.90978338 41337

AllMySatでOPS 0856 DEBをリアルタイム追跡

Download on the App Store